sat.trackr.live / text

‹ back to catalog

STARLINK-4383

NORAD 53473 · 2022-099J

PAYLOAD ACTIVE UNKNOWN

§ Identity

Operator
Country
US
Launch date
2022-08-12
Launch site
AFWTR
Launch vehicle
Mass (kg)
RCS (m²)

Purposes: comms

External: N2YO · Heavens-Above · Gunter

§ Orbital elements

Epoch: 2026-09-19T15:49:11.562240Z

Period
93.69 min
Inclination
97.4911°
Eccentricity
0.0001544
Mean motion
15.37016565 rev/d
Perigee alt
453.9 km
Apogee alt
456.0 km
Semi-major
6,833.1 km
B*
-2.7128e-4
RAAN
28.6266°
Arg perigee
78.9397°
Mean anomaly
281.2020°
Rev number
22,566

§ Raw data

STARLINK-43831 53473U 22099J   26262.65916160 -.00009882  00000+0 -27128-3 0  99972 53473  97.4911  28.6266 0001544  78.9397 281.2020 15.37016565225667

JSON: /api/v1/satellites/53473 · /tle

For live sub-satellite position, see the globe view (requires WebGL).

§ Visibility from observer

Set your observer location to see the next 7 days of passes ≥ 10°. The values pass through the URL so the page stays shareable.

No JS? Fill the form by hand. The geolocation button needs JavaScript.